Weather History for KIGQ - March, 2014

Change the Weather History Date:

Monday, March 17, 2014

  Actual Average (KMDW) Record (KMDW)
Temperature  
Mean Temperature 26 °F 39 °F  
Max Temperature 37 °F 47 °F 80 °F (2012)
Min Temperature 14 °F 31 °F 0 °F (1941)
Degree Days  
Heating Degree Days 40 26  
Month to date heating degree days 489  
Since 1 July heating degree days 5000  
Cooling Degree Days 0 0  
Month to date cooling degree days 0  
Year to date cooling degree days 0  
Moisture  
Dew Point 14 °F    
Average Humidity 62    
Maximum Humidity 79    
Minimum Humidity 46    
Precipitation  
Precipitation 0.00 in 0.08 in 1.42 in (1965)
Month to date precipitation 1.43  
Year to date precipitation 5.43  
Sea Level Pressure  
Sea Level Pressure 29.95 in    
Wind  
Wind Speed 7 mph (SE)    
Max Wind Speed 12 mph    
Max Gust Speed 18 mph    
Visibility 10 miles    
Events      
T = Trace of Precipitation, MM = Missing Value Source: NWS Daily Summary

Daily Weather History Graph

Daily Weather History Graph

Search for Another Location

Airport or City:

Trip Planner

Search our weather history database for the weather conditions in past years. The results will help you decide how hot, cold, wet, or windy it might be!

Date:

Astronomy

Mar. 17, 2014 Rise Set
Actual Time 6:58 AM CDT 6:58 PM CDT
Civil Twilight 6:30 AM CDT 7:26 PM CDT
Nautical Twilight 5:58 AM CDT 7:58 PM CDT
Astronomical Twilight 5:25 AM CDT 8:31 PM CDT
Moon 8:16 PM CDT (3/17) 7:12 AM CDT (3/17)
Length of Visible Light 12h 55m
Length of Day
12h 00m
Full, 99% of the Moon is Illuminated
Mar 17
Full
Mar 23
Last Quarter
Mar 30
New
Apr 7
First Quarter
Apr 15
Full

Hourly Weather History & Observations

Time (CDT) Temp. Windchill Dew Point Humidity Pressure Visibility Wind Dir Wind Speed Gust Speed Precip Events Conditions
12:15 AM 20.3 °F 12.5 °F 12.0 °F 70% 30.16 in 10.0 mi NE 5.8 mph - N/A   Clear
12:35 AM 20.3 °F 9.8 °F 12.2 °F 71% 30.16 in 10.0 mi NE 9.2 mph - N/A   Clear
12:55 AM 20.1 °F 11.3 °F 12.2 °F 71% 30.14 in 10.0 mi ENE 6.9 mph - N/A   Clear
1:15 AM 19.6 °F 10.6 °F 11.3 °F 70% 30.13 in 10.0 mi ENE 6.9 mph - N/A   Clear
1:35 AM 19.2 °F 12.5 °F 10.9 °F 70% 30.11 in 10.0 mi East 4.6 mph - N/A   Clear
1:55 AM 18.7 °F 9.5 °F 10.4 °F 70% 30.11 in 10.0 mi ENE 6.9 mph - N/A   Clear
2:15 AM 18.3 °F 7.3 °F 10.0 °F 70% 30.10 in 10.0 mi East 9.2 mph - N/A   Clear
2:35 AM 18.0 °F 7.7 °F 9.0 °F 68% 30.08 in 10.0 mi East 8.1 mph - N/A   Clear
2:55 AM 17.4 °F 10.4 °F 8.6 °F 68% 30.08 in 10.0 mi East 4.6 mph - N/A   Clear
3:15 AM 16.9 °F 8.5 °F 8.6 °F 70% 30.07 in 10.0 mi ENE 5.8 mph - N/A   Clear
3:35 AM 16.7 °F 8.3 °F 8.6 °F 70% 30.06 in 10.0 mi ENE 5.8 mph - N/A   Clear
3:55 AM 16.7 °F 8.3 °F 7.5 °F 67% 30.05 in 10.0 mi East 5.8 mph - N/A   Clear
4:15 AM 16.5 °F 6.9 °F 6.8 °F 66% 30.04 in 10.0 mi East 6.9 mph - N/A   Clear
4:35 AM 16.3 °F 7.8 °F 6.3 °F 65% 30.04 in 10.0 mi ENE 5.8 mph - N/A   Clear
4:55 AM 15.8 °F 8.6 °F 6.4 °F 67% 30.04 in 10.0 mi East 4.6 mph - N/A   Clear
5:15 AM 15.8 °F 7.2 °F 6.4 °F 67% 30.04 in 10.0 mi ENE 5.8 mph - N/A   Clear
5:35 AM 15.4 °F 6.8 °F 6.3 °F 67% 30.03 in 10.0 mi ENE 5.8 mph - N/A   Clear
5:55 AM 15.4 °F 4.6 °F 5.0 °F 63% 30.02 in 10.0 mi East 8.1 mph - N/A   Clear
6:15 AM 15.4 °F 4.6 °F 4.5 °F 62% 30.02 in 10.0 mi East 8.1 mph - N/A   Clear
6:35 AM 15.3 °F 5.4 °F 5.0 °F 64% 30.01 in 10.0 mi East 6.9 mph - N/A   Clear
6:55 AM 14.9 °F 6.1 °F 4.8 °F 64% 30.01 in 10.0 mi East 5.8 mph - N/A   Clear
7:15 AM 14.7 °F 4.8 °F 4.8 °F 65% 30.02 in 10.0 mi East 6.9 mph - N/A   Clear
7:35 AM 15.4 °F 6.8 °F 4.8 °F 63% 30.01 in 10.0 mi East 5.8 mph - N/A   Clear
7:55 AM 15.8 °F 7.2 °F 4.8 °F 62% 30.02 in 10.0 mi East 5.8 mph - N/A   Clear
8:15 AM 16.7 °F 9.6 °F 5.7 °F 62% 30.02 in 10.0 mi East 4.6 mph - N/A   Clear
8:35 AM 17.6 °F 8.2 °F 6.4 °F 62% 30.00 in 10.0 mi ESE 6.9 mph - N/A   Clear
8:55 AM 18.5 °F 7.5 °F 7.0 °F 61% 30.00 in 10.0 mi ESE 9.2 mph - N/A   Clear
9:15 AM 19.9 °F 12.1 °F 7.3 °F 58% 29.99 in 10.0 mi ESE 5.8 mph - N/A   Clear
9:35 AM 21.2 °F 13.6 °F 7.9 °F 57% 29.99 in 10.0 mi SE 5.8 mph - N/A   Clear
9:55 AM 22.6 °F 12.6 °F 8.8 °F 55% 29.98 in 10.0 mi SE 9.2 mph - N/A   Clear
10:15 AM 23.7 °F 16.6 °F 9.0 °F 53% 29.98 in 10.0 mi ESE 5.8 mph - N/A   Clear
10:35 AM 25.5 °F 16.9 °F 10.4 °F 53% 29.98 in 10.0 mi ESE 8.1 mph - N/A   Clear
10:55 AM 26.8 °F 18.5 °F 11.5 °F 53% 29.97 in 10.0 mi ESE 8.1 mph - N/A   Clear
11:15 AM 27.3 °F 20.9 °F 11.1 °F 51% 29.97 in 10.0 mi ESE 5.8 mph - N/A   Clear
11:35 AM 28.2 °F 21.0 °F 11.8 °F 50% 29.96 in 10.0 mi SSE 6.9 mph - N/A   Clear
11:55 AM 28.9 °F 22.8 °F 12.6 °F 50% 29.96 in 10.0 mi SE 5.8 mph - N/A   Clear
12:15 PM 29.8 °F 23.0 °F 12.6 °F 49% 29.95 in 10.0 mi SSE 6.9 mph - N/A   Clear
12:35 PM 30.6 °F 23.1 °F 13.3 °F 49% 29.94 in 10.0 mi SSE 8.1 mph - N/A   Clear
12:55 PM 32.0 °F 24.8 °F 15.1 °F 50% 29.93 in 10.0 mi South 8.1 mph - N/A   Clear
1:15 PM 32.2 °F 26.7 °F 15.1 °F 49% 29.91 in 10.0 mi South 5.8 mph - N/A   Clear
1:35 PM 32.5 °F 25.5 °F 15.1 °F 49% 29.89 in 10.0 mi SE 8.1 mph - N/A   Clear
1:55 PM 33.6 °F 28.4 °F 15.8 °F 48% 29.88 in 10.0 mi SSE 5.8 mph - N/A   Clear
2:15 PM 34.2 °F 27.5 °F 16.2 °F 48% 29.87 in 10.0 mi SSE 8.1 mph - N/A   Clear
2:35 PM 34.2 °F 27.5 °F 15.4 °F 46% 29.87 in 10.0 mi SSE 8.1 mph - N/A   Clear
2:55 PM 35.6 °F 30.7 °F 17.6 °F 48% 29.86 in 10.0 mi SE 5.8 mph - N/A   Clear
3:15 PM 35.8 °F 28.8 °F 18.1 °F 49% 29.85 in 10.0 mi SSE 9.2 mph - N/A   Clear
3:35 PM 36.3 °F 28.9 °F 18.3 °F 48% 29.84 in 10.0 mi SE 10.4 mph - N/A   Clear
3:55 PM 36.9 °F 30.1 °F 19.0 °F 49% 29.84 in 10.0 mi SSE 9.2 mph 16.1 mph N/A   Clear
4:15 PM 37.0 °F 29.8 °F 20.3 °F 51% 29.83 in 10.0 mi South 10.4 mph 18.4 mph N/A   Clear
4:35 PM 37.4 °F 30.3 °F 21.2 °F 52% 29.83 in 10.0 mi SSE 10.4 mph - N/A   Clear
4:55 PM 37.0 °F 31.6 °F 21.4 °F 53% 29.83 in 10.0 mi SSE 6.9 mph - N/A   Clear
5:15 PM 36.7 °F 29.4 °F 22.1 °F 56% 29.83 in 10.0 mi South 10.4 mph - N/A   Clear
5:35 PM 36.5 °F 28.7 °F 22.6 °F 57% 29.82 in 10.0 mi South 11.5 mph - N/A   Clear
5:55 PM 36.3 °F 29.5 °F 22.3 °F 57% 29.83 in 10.0 mi SSE 9.2 mph - N/A   Clear
6:15 PM 35.8 °F 28.8 °F 22.8 °F 59% 29.83 in 10.0 mi ESE 9.2 mph - N/A   Clear
6:35 PM 35.1 °F 27.9 °F 22.8 °F 61% 29.83 in 10.0 mi SE 9.2 mph - N/A   Clear
6:55 PM 34.2 °F 26.8 °F 23.7 °F 66% 29.82 in 10.0 mi ESE 9.2 mph - N/A   Clear
7:15 PM 33.4 °F 28.1 °F 23.5 °F 67% 29.83 in 10.0 mi SSE 5.8 mph - N/A   Clear
7:35 PM 32.2 °F 27.7 °F 23.7 °F 71% 29.83 in 10.0 mi SSE 4.6 mph - N/A   Clear
7:55 PM 32.0 °F 25.6 °F 23.7 °F 71% 29.83 in 10.0 mi South 6.9 mph - N/A   Clear
8:15 PM 32.0 °F 26.4 °F 23.9 °F 72% 29.84 in 10.0 mi SSE 5.8 mph - N/A   Clear
8:35 PM 32.0 °F 26.4 °F 24.6 °F 74% 29.84 in 10.0 mi SSE 5.8 mph - N/A   Clear
8:55 PM 32.0 °F 24.8 °F 24.6 °F 74% 29.84 in 10.0 mi SSE 8.1 mph - N/A   Clear
9:15 PM 31.8 °F 25.4 °F 24.6 °F 75% 29.84 in 10.0 mi South 6.9 mph - N/A   Clear
9:35 PM 31.8 °F 25.4 °F 25.0 °F 76% 29.84 in 10.0 mi SSE 6.9 mph - N/A   Clear
9:55 PM 31.6 °F 23.7 °F 24.8 °F 76% 29.84 in 10.0 mi SSE 9.2 mph - N/A   Clear
10:35 PM 31.6 °F 23.7 °F 24.6 °F 75% 29.84 in 10.0 mi SSE 9.2 mph - N/A   Clear
10:55 PM 31.6 °F 24.4 °F 24.8 °F 76% 29.84 in 10.0 mi SSE 8.1 mph - N/A   Clear
11:15 PM 31.1 °F 24.5 °F 24.6 °F 77% 29.84 in 10.0 mi SSE 6.9 mph - N/A   Clear
11:35 PM 30.7 °F 26.0 °F 24.1 °F 76% 29.85 in 10.0 mi South 4.6 mph - N/A   Clear
11:55 PM 29.3 °F 24.3 °F 23.5 °F 79% 29.87 in 10.0 mi South 4.6 mph - N/A   Clear